Location: Blue Sky Observatory
(43.1153°N, 70.9036°W)
Time: 21:03:19
(UTC-04:00)

Amateur Radio Satellites - All Passes

Search period start: 30 July 2015 20:33
Search period end: 31 July 2015 20:33
Location: Blue Sky Observatory, 43.1153°N, 70.9036°W

Satellite Date Start Highest point End Downlink Frequencies (MHz)
Time Altitude Azimuth
HO-68 30 Jul 20:38:38 20:45:46 76° 256° (WSW) 20:52:58 435.675
PHONESAT 2.4 30 Jul 20:43:22 20:45:57 20° 155° (SSE) 20:48:35 2401.200-2431.200
ISS 30 Jul 20:45:58 20:47:24 13° 132° (SE) 20:48:58 145.825
UWE-3 30 Jul 20:50:53 20:54:25 27° 69° (ENE) 20:58:05 435.000/436.395/437.385
FUNcube-1 30 Jul 20:53:44 20:56:58 22° 67° (ENE) 21:00:20 145.935
Cosmos 2499 30 Jul 20:55:34 21:02:31 26° 277° (W) 21:09:15 435.465 / 435.565
VERMONT LUNAR 30 Jul 20:56:32 20:59:39 51° 175° (S) 21:02:45 437.305
COMPASS 1 30 Jul 20:58:34 21:02:46 74° 258° (WSW) 21:07:01 437.405
CUBEBUG 2 30 Jul 21:02:19 21:06:17 46° 73° (ENE) 21:10:24 437.445
M-CUBED/EXP-1 PRIME 30 Jul 21:06:02 21:06:59 11° 90° (E) 21:08:14 437.505
Oscar 11 30 Jul 21:08:30 21:12:43 54° 73° (ENE) 21:16:59 145.826/435.025
SEEDS 30 Jul 21:11:02 21:15:05 42° 263° (W) 21:19:08 437.485
CUTE 1.7 + AOD 2 30 Jul 21:11:19 21:15:14 34° 264° (W) 21:19:10 437.475
UKube-1 30 Jul 21:12:51 21:14:11 11° 61° (ENE) 21:15:44 .
STRAND 1 30 Jul 21:15:14 21:19:03 21° 297° (WNW) 21:22:43 437.568
CANX-2 30 Jul 21:19:51 21:23:28 26° 266° (W) 21:27:02 2200.000
HUMSAT D 30 Jul 21:31:49 21:35:09 25° 68° (ENE) 21:38:36 437.325/437.525
AUBIESAT-1 30 Jul 21:35:08 21:38:25 19° 95° (E) 21:41:48 437.475
DX 1 30 Jul 21:36:10 21:39:26 22° 66° (ENE) 21:42:49 434.975-435.025
DOVE 4 30 Jul 21:37:31 21:40:04 15° 270° (W) 21:42:27 437.250
DELFI C3 30 Jul 21:39:23 21:43:27 81° 77° (ENE) 21:47:33 145.870
AAUSAT CUBESAT 2 30 Jul 21:42:13 21:45:54 29° 265° (W) 21:49:34 437.432
VELOX 1 30 Jul 21:44:56 21:47:34 16° 64° (ENE) 21:50:22 145.980
50 SAT 30 Jul 21:45:41 21:48:02 16° 66° (ENE) 21:50:31 437.505
ESTCUBE 1 30 Jul 21:50:32 21:52:40 14° 62° (ENE) 21:55:00 437.505/2401.250
CINEMA 3 30 Jul 21:58:15 22:01:23 20° 268° (W) 22:04:28 145.822/145.860
ZACube-1 30 Jul 22:06:25 22:10:32 57° 260° (W) 22:14:45 437.345
Cosmos 2491 30 Jul 22:07:34 22:13:57 23° 61° (ENE) 22:20:38 435.465 / 435.565
TIGRISAT 30 Jul 22:10:41 22:13:08 14° 89° (E) 22:15:49 435.000
RS-15 30 Jul 22:11:21 22:22:13 81° 121° (ESE) 22:33:35 29.354- 29.394
ANTELSAT 30 Jul 22:11:34 22:14:15 15° 89° (E) 22:17:08 437.575/2403.000
PHONESAT 2.4 30 Jul 22:20:07 22:23:31 48° 171° (S) 22:26:55 2401.200-2431.200
ISS 30 Jul 22:20:12 22:23:27 83° 330° (NNW) 22:26:44 145.825
UWE-3 30 Jul 22:27:23 22:30:56 26° 266° (W) 22:34:31 435.000/436.395/437.385
FUNcube-1 30 Jul 22:29:20 22:33:08 33° 264° (W) 22:36:59 145.935
HO-68 30 Jul 22:31:43 22:34:53 13° 276° (W) 22:37:33 435.675
VERMONT LUNAR 30 Jul 22:33:10 22:36:11 40° 192° (SSW) 22:39:11 437.305
M-CUBED/EXP-1 PRIME 30 Jul 22:37:38 22:42:29 90° 301° (WNW) 22:47:13 437.505
YUBILEINY 30 Jul 22:37:49 22:39:11 11° 73° (ENE) 22:41:19 435.215
AISAT 30 Jul 22:39:49 22:44:09 60° 73° (ENE) 22:48:31 437.250
CUBEBUG 2 30 Jul 22:40:44 22:43:20 16° 271° (W) 22:45:49 437.445
UKube-1 30 Jul 22:45:26 22:49:46 78° 257° (WSW) 22:54:06 .
Oscar 11 30 Jul 22:46:51 22:49:18 14° 271° (W) 22:51:33 145.826/435.025
CUBEBUG 1 30 Jul 22:59:10 23:03:24 52° 73° (ENE) 23:07:39 437.445
UNISAT 6 30 Jul 23:01:42 23:06:16 49° 99° (E) 23:10:50 437.425
BEESAT 3 30 Jul 23:03:11 23:05:33 15° 111° (ESE) 23:08:04 437.485
HUMSAT D 30 Jul 23:07:10 23:10:48 29° 265° (W) 23:14:27 437.325/437.525
AUBIESAT-1 30 Jul 23:08:47 23:13:26 52° 293° (WNW) 23:17:57 437.475
DX 1 30 Jul 23:11:27 23:15:30 37° 262° (W) 23:19:32 434.975-435.025
POLYITAN 1 30 Jul 23:16:16 23:19:51 26° 94° (E) 23:23:30 437.675
50 SAT 30 Jul 23:18:37 23:22:18 41° 262° (W) 23:26:03 437.505
VELOX 1 30 Jul 23:19:25 23:23:44 54° 260° (W) 23:28:05 145.980
AIST 1 30 Jul 23:21:57 23:26:13 70° 80° (E) 23:30:28
ESTCUBE 1 30 Jul 23:24:30 23:29:01 70° 258° (WSW) 23:33:35 437.505/2401.250
POPSAT HIP 1 30 Jul 23:33:43 23:37:43 39° 98° (E) 23:41:44 437.405
QB50P2 30 Jul 23:40:52 23:45:01 49° 99° (E) 23:49:11 145.880/145.840
SPROUT 30 Jul 23:41:26 23:45:29 44° 72° (ENE) 23:49:34 437.525
TIGRISAT 30 Jul 23:45:43 23:50:21 62° 286° (WNW) 23:54:59 435.000
BUGSAT 1 30 Jul 23:46:25 23:50:04 32° 96° (E) 23:53:48 437.445
ANTELSAT 30 Jul 23:46:50 23:51:26 59° 287° (WNW) 23:56:05 437.575/2403.000
BEESAT 2 30 Jul 23:57:04 00:00:56 43° 118° (ESE) 00:04:54 435.950
ISS 30 Jul 23:57:35 00:00:15 22° 346° (NNW) 00:02:55 145.825
PHONESAT 2.4 30 Jul 23:57:53 00:01:18 51° 187° (S) 00:04:42 2401.200-2431.200
TISAT 1 30 Jul 23:59:33 00:03:29 43° 72° (ENE) 00:07:29 437.305
Cosmos 2491 31 Jul 00:03:19 00:12:04 82° 264° (W) 00:20:46 435.465 / 435.565
DUCHIFAT 1 31 Jul 00:07:11 00:11:27 89° 253° (WSW) 00:15:42 145.980
QB50P1 31 Jul 00:09:15 00:13:31 82° 284° (WNW) 00:17:46 145.935-145.965
VERMONT LUNAR 31 Jul 00:10:37 00:12:28 15° 207° (SSW) 00:14:16 437.305
NANOSAT C BR1 31 Jul 00:11:07 00:15:23 79° 285° (WNW) 00:19:38 145.865
M-CUBED/EXP-1 PRIME 31 Jul 00:14:12 00:16:35 13° 305° (NW) 00:18:47 437.505
SWISSCUBE 31 Jul 00:14:29 00:17:05 15° 62° (ENE) 00:19:51 437.505
AISAT 31 Jul 00:18:56 00:21:11 13° 271° (W) 00:23:13 437.250
YUBILEINY 31 Jul 00:25:53 00:34:22 62° 92° (E) 00:42:59 435.215
RS-15 31 Jul 00:25:54 00:36:00 38° 328° (NNW) 00:46:23 29.354- 29.394
ITUPSAT 1 31 Jul 00:33:43 00:37:10 20° 64° (ENE) 00:40:44 437.325
CUBEBUG 1 31 Jul 00:37:33 00:40:07 15° 270° (W) 00:42:31 437.445
BEESAT 3 31 Jul 00:39:07 00:43:07 53° 308° (NW) 00:47:08 437.485
UNISAT 6 31 Jul 00:39:19 00:42:43 20° 295° (WNW) 00:46:00 437.425
POLYITAN 1 31 Jul 00:52:02 00:55:45 29° 291° (WNW) 00:59:24 437.675
POPSAT HIP 1 31 Jul 01:10:13 01:13:21 20° 294° (WNW) 01:16:23 437.405
QB50P2 31 Jul 01:17:49 01:20:34 16° 295° (WNW) 01:23:10 145.880/145.840
SPROUT 31 Jul 01:18:59 01:21:50 17° 269° (W) 01:24:33 437.525
AIST 2 31 Jul 01:19:24 01:23:38 73° 122° (ESE) 01:27:54 435.215
BUGSAT 1 31 Jul 01:22:16 01:25:24 21° 293° (WNW) 01:28:27 437.445
Oscar 19 31 Jul 01:22:47 01:26:55 24° 93° (E) 01:31:09 437.125/150
BEESAT 31 Jul 01:29:18 01:34:04 69° 73° (ENE) 01:38:52 436.000
ISS 31 Jul 01:35:04 01:37:29 19° 6° (N) 01:39:54 145.825
BEESAT 2 31 Jul 01:35:53 01:39:12 22° 317° (NW) 01:42:28 435.950
PHONESAT 2.4 31 Jul 01:36:04 01:38:55 23° 203° (SSW) 01:41:43 2401.200-2431.200
TISAT 1 31 Jul 01:36:46 01:39:31 16° 269° (W) 01:42:08 437.305
Cosmos 2504 31 Jul 01:41:20 01:46:04 20° 80° (E) 01:51:19 435.465 / 435.565
SWISSCUBE 31 Jul 01:49:38 01:54:25 70° 258° (WSW) 01:59:15 437.505
O/OREOS (USA 219) 31 Jul 01:58:45 02:03:12 74° 111° (ESE) 02:07:43 437.305
Cosmos 2491 31 Jul 02:02:37 02:07:42 16° 283° (WNW) 02:12:15 435.465 / 435.565
ITUPSAT 1 31 Jul 02:10:04 02:14:45 49° 261° (W) 02:19:26 437.325
Gurwin Techsat 1B 31 Jul 02:10:20 02:14:13 21° 91° (E) 02:18:15 435.225
STARS 31 Jul 02:22:23 02:25:55 25° 67° (ENE) 02:29:32 437.465
YUBILEINY 31 Jul 02:24:19 02:31:53 31° 294° (WNW) 02:39:18 435.215
ITAMSAT 1 31 Jul 02:40:18 02:44:57 34° 96° (E) 02:49:39 435.822/435.867
RS-15 31 Jul 02:44:02 02:52:49 24° 2° (N) 03:01:56 29.354- 29.394
KKS-1 31 Jul 02:44:41 02:49:04 70° 74° (ENE) 02:53:29 437.445
AIST 2 31 Jul 02:59:52 03:02:43 17° 321° (NW) 03:05:28 435.215
Oscar 19 31 Jul 03:01:35 03:06:29 43° 290° (WNW) 03:11:21 437.125/150
BEESAT 31 Jul 03:10:01 03:12:28 13° 272° (W) 03:14:41 436.000
ISS 31 Jul 03:11:20 03:14:30 44° 26° (NNE) 03:17:38 145.825
AO-7 31 Jul 03:18:20 03:23:33 19° 88° (E) 03:29:10 29.400- 29.500
JAS-2 31 Jul 03:23:34 03:30:58 45° 95° (E) 03:38:22 435.910
MOZHAYETS 4 31 Jul 03:26:01 03:29:42 24° 67° (ENE) 03:33:29
Cosmos 2504 31 Jul 03:30:18 03:37:24 74° 280° (W) 03:45:03 435.465 / 435.565
O/OREOS (USA 219) 31 Jul 03:40:47 03:43:15 14° 311° (NW) 03:45:35 437.305
HORYU 2 31 Jul 03:41:52 03:44:52 18° 91° (E) 03:48:00 437.375
Gurwin Techsat 1B 31 Jul 03:49:24 03:54:34 52° 289° (WNW) 03:59:41 435.225
CUSAT 1 31 Jul 03:54:05 03:56:01 17° 96° (E) 03:57:53 437.405
STARS 31 Jul 03:58:20 04:02:15 32° 264° (W) 04:06:10 437.465
ITAMSAT 1 31 Jul 04:19:51 04:24:26 32° 293° (WNW) 04:28:55 435.822/435.867
KKS-1 31 Jul 04:24:43 04:26:17 11° 272° (W) 04:27:35 437.445
ISS 31 Jul 04:48:01 04:50:49 26° 223° (SW) 04:53:34 145.825
RS-15 31 Jul 04:58:53 05:09:33 40° 34° (NE) 05:20:48 29.354- 29.394
MOZHAYETS 4 31 Jul 05:02:26 05:06:45 37° 264° (W) 05:11:04
DANDE 31 Jul 05:05:42 05:09:03 64° 281° (W) 05:11:49 436.750
JAS-2 31 Jul 05:08:40 05:15:57 44° 293° (WNW) 05:23:10 435.910
GONETS M04 31 Jul 05:09:08 05:15:54 27° 83° (E) 05:22:56
AO-7 31 Jul 05:09:13 05:17:37 88° 107° (ESE) 05:25:57 29.400- 29.500
CUBESAT XI-V 31 Jul 05:16:02 05:20:01 29° 69° (ENE) 05:24:04 437.345
STRAND 1 31 Jul 05:16:45 05:18:33 12° 58° (ENE) 05:20:36 437.568
HORYU 2 31 Jul 05:17:27 05:21:48 46° 288° (WNW) 05:26:06 437.375
Cosmos 2504 31 Jul 05:27:38 05:31:24 14° 305° (NW) 05:34:50 435.465 / 435.565
CUSAT 1 31 Jul 05:37:20 05:38:32 12° 289° (WNW) 05:39:35 437.405
CUTE-I 31 Jul 05:39:46 05:41:08 11° 85° (E) 05:42:51 437.470
Cubesat XI-IV 31 Jul 06:20:55 06:25:28 29° 94° (E) 06:30:04 437.490
STRAND 1 31 Jul 06:51:53 06:57:02 84° 75° (ENE) 07:02:13 437.568
CUBESAT XI-V 31 Jul 06:53:14 06:57:25 31° 265° (W) 07:01:33 437.345
PRISM 31 Jul 06:53:59 06:58:10 75° 75° (ENE) 07:02:22 437.425
AO-7 31 Jul 07:03:13 07:09:32 24° 308° (NW) 07:15:33 29.400- 29.500
GONETS M04 31 Jul 07:03:28 07:12:08 67° 282° (WNW) 07:20:48
RS-15 31 Jul 07:11:30 07:23:17 78° 240° (WSW) 07:35:27 29.354- 29.394
CUTE-I 31 Jul 07:16:44 07:22:06 89° 102° (ESE) 07:27:26 437.470
BEESAT 3 31 Jul 07:19:40 07:22:18 17° 39° (NE) 07:25:00 437.485
Cosmos 2499 31 Jul 07:39:12 07:46:17 55° 91° (E) 07:54:00 435.465 / 435.565
BRITE-PL 31 Jul 07:44:15 07:47:43 23° 94° (E) 07:51:27 437.365/2234.400
M-CUBED/EXP-1 PRIME 31 Jul 07:53:52 07:56:15 15° 56° (ENE) 07:58:53 437.505
DOVE 4 31 Jul 07:57:00 07:58:44 12° 88° (E) 08:00:46 437.250
Cubesat XI-IV 31 Jul 08:00:45 08:05:41 39° 292° (WNW) 08:10:33 437.490
GOMX 1 31 Jul 08:01:16 08:04:42 22° 93° (E) 08:08:24 467.674
AIST 2 31 Jul 08:03:44 08:04:59 11° 33° (NNE) 08:06:24 435.215
HO-68 31 Jul 08:06:30 08:11:21 20° 89° (E) 08:16:31 435.675
BEESAT 2 31 Jul 08:15:08 08:18:58 37° 49° (NE) 08:22:46 435.950
AUBIESAT-1 31 Jul 08:23:14 08:26:35 25° 61° (ENE) 08:30:13 437.475
STRAND 1 31 Jul 08:34:54 08:37:00 12° 274° (W) 08:38:48 437.568
SO-50 31 Jul 08:38:07 08:40:52 16° 110° (ESE) 08:43:51 436.795
COMPASS 1 31 Jul 08:42:03 08:44:44 17° 90° (E) 08:47:32 437.405
SEEDS 31 Jul 08:54:25 08:58:07 29° 95° (E) 09:01:51 437.485
CUTE 1.7 + AOD 2 31 Jul 08:55:14 08:59:13 36° 97° (E) 09:03:12 437.475
BEESAT 3 31 Jul 08:56:39 09:00:41 65° 240° (WSW) 09:04:37 437.485
CUTE-I 31 Jul 08:58:47 09:01:31 14° 301° (WNW) 09:04:00 437.470
CANX-2 31 Jul 09:03:17 09:07:30 50° 99° (E) 09:11:41 2200.000
GONETS M04 31 Jul 09:06:44 09:11:11 14° 307° (NW) 09:15:05
TIGRISAT 31 Jul 09:11:10 09:13:23 14° 63° (ENE) 09:15:48 435.000
ANTELSAT 31 Jul 09:12:13 09:14:39 15° 63° (ENE) 09:17:17 437.575/2403.000
DELFI C3 31 Jul 09:20:37 09:20:47 10° 87° (E) 09:21:12 145.870
BRITE-PL 31 Jul 09:22:26 09:26:21 34° 289° (WNW) 09:30:27 437.365/2234.400
AAUSAT CUBESAT 2 31 Jul 09:23:33 09:27:31 40° 97° (E) 09:31:29 437.432
PCSat 31 Jul 09:24:57 09:30:15 62° 117° (ESE) 09:35:38 145.827
RS-15 31 Jul 09:26:12 09:34:13 20° 259° (W) 09:41:35 29.354- 29.394
M-CUBED/EXP-1 PRIME 31 Jul 09:26:34 09:30:31 59° 255° (WSW) 09:34:50 437.505
DOVE 4 31 Jul 09:32:26 09:36:59 72° 284° (WNW) 09:41:48 437.250
Cosmos 2499 31 Jul 09:33:27 09:39:58 31° 294° (WNW) 09:46:46 435.465 / 435.565
GOMX 1 31 Jul 09:38:49 09:42:58 39° 288° (WNW) 09:47:21 467.674
AIST 2 31 Jul 09:40:16 09:44:28 64° 54° (NE) 09:48:34 435.215
CINEMA 3 31 Jul 09:49:54 09:54:35 80° 102° (ESE) 09:59:26 145.822/145.860
HO-68 31 Jul 09:52:45 09:59:57 79° 288° (WNW) 10:07:08 435.675
BEESAT 2 31 Jul 09:53:38 09:56:50 22° 246° (WSW) 09:59:54 435.950
ZACube-1 31 Jul 09:54:04 09:57:50 26° 94° (E) 10:01:43 437.345
AUBIESAT-1 31 Jul 09:57:32 10:01:10 32° 260° (W) 10:05:03 437.475
UNISAT 6 31 Jul 10:01:42 10:05:50 46° 72° (ENE) 10:10:08 437.425
POLYITAN 1 31 Jul 10:10:31 10:13:48 23° 67° (ENE) 10:17:11 437.675
UWE-3 31 Jul 10:14:59 10:19:29 55° 100° (E) 10:24:04 435.000/436.395/437.385
FUNcube-1 31 Jul 10:15:54 10:20:12 42° 97° (E) 10:24:34 145.935
SO-50 31 Jul 10:16:07 10:20:53 69° 307° (NW) 10:25:49 436.795
COMPASS 1 31 Jul 10:16:37 10:20:40 43° 288° (WNW) 10:24:39 437.405
POPSAT HIP 1 31 Jul 10:27:29 10:31:14 33° 70° (ENE) 10:35:03 437.405
CUBEBUG 2 31 Jul 10:28:10 10:32:48 86° 284° (WNW) 10:37:32 437.445
O/OREOS (USA 219) 31 Jul 10:29:12 10:32:33 20° 53° (NE) 10:36:01 437.305
SEEDS 31 Jul 10:30:14 10:33:50 26° 291° (WNW) 10:37:20 437.485
Oscar 11 31 Jul 10:30:42 10:35:06 83° 281° (W) 10:39:28 145.826/435.025
CUTE 1.7 + AOD 2 31 Jul 10:31:36 10:34:55 21° 293° (WNW) 10:38:08 437.475
AISAT 31 Jul 10:32:25 10:32:56 10° 87° (E) 10:33:44 437.250
UKube-1 31 Jul 10:33:05 10:35:43 16° 91° (E) 10:38:29 .
QB50P2 31 Jul 10:34:39 10:38:36 41° 72° (ENE) 10:42:36 145.880/145.840
YUBILEINY 31 Jul 10:35:00 10:42:38 32° 67° (ENE) 10:50:26 435.215
BUGSAT 1 31 Jul 10:37:38 10:41:01 26° 69° (ENE) 10:44:27 437.445
CANX-2 31 Jul 10:40:17 10:43:03 16° 295° (WNW) 10:45:41 2200.000
TIGRISAT 31 Jul 10:45:22 10:49:39 62° 259° (W) 10:54:04 435.000
ANTELSAT 31 Jul 10:46:42 10:50:59 57° 260° (W) 10:55:23 437.575/2403.000
HUMSAT D 31 Jul 10:49:26 10:53:31 40° 98° (E) 10:57:37 437.325/437.525
DELFI C3 31 Jul 10:52:20 10:56:24 67° 284° (WNW) 11:00:24 145.870
50 SAT 31 Jul 10:53:26 10:56:21 20° 92° (E) 10:59:21 437.505
DX 1 31 Jul 10:58:35 11:02:30 33° 97° (E) 11:06:26 434.975-435.025
AAUSAT CUBESAT 2 31 Jul 10:59:50 11:02:51 19° 294° (WNW) 11:05:47 437.432
DUCHIFAT 1 31 Jul 11:00:10 11:04:20 75° 75° (ENE) 11:08:32 145.980
QB50P1 31 Jul 11:02:36 11:06:48 84° 76° (ENE) 11:11:02 145.935-145.965
NANOSAT C BR1 31 Jul 11:04:16 11:08:27 86° 77° (ENE) 11:12:41 145.865
VELOX 1 31 Jul 11:09:11 11:12:49 26° 94° (E) 11:16:32 145.980
PCSat 31 Jul 11:09:44 11:14:08 24° 316° (NW) 11:18:29 145.827
Cosmos 2491 31 Jul 11:11:22 11:17:45 24° 82° (E) 11:24:27 435.465 / 435.565
ESTCUBE 1 31 Jul 11:16:50 11:20:21 22° 93° (E) 11:23:54 437.505/2401.250
AIST 2 31 Jul 11:20:29 11:22:33 13° 250° (WSW) 11:24:26 435.215
CINEMA 3 31 Jul 11:29:09 11:31:16 13° 297° (WNW) 11:33:13 145.822/145.860
ZACube-1 31 Jul 11:30:09 11:34:14 33° 290° (WNW) 11:38:17 437.345
UNISAT 6 31 Jul 11:40:04 11:42:58 17° 270° (W) 11:45:45 437.425
HO-68 31 Jul 11:42:14 11:46:42 17° 307° (NW) 11:50:54 435.675
POLYITAN 1 31 Jul 11:45:47 11:49:34 32° 264° (W) 11:53:20 437.675
AIST 1 31 Jul 11:52:19 11:56:21 39° 93° (E) 12:00:25
UWE-3 31 Jul 11:52:36 11:55:38 17° 295° (WNW) 11:58:33 435.000/436.395/437.385
FUNcube-1 31 Jul 11:52:50 11:56:17 21° 293° (WNW) 11:59:38 145.935
SO-50 31 Jul 11:59:36 12:02:25 15° 328° (NNW) 12:05:08 436.795
POPSAT HIP 1 31 Jul 12:03:56 12:07:13 21° 267° (W) 12:10:24 437.405
AISAT 31 Jul 12:05:43 12:10:09 76° 284° (WNW) 12:14:33 437.250
CUBEBUG 2 31 Jul 12:07:46 12:08:52 11° 299° (WNW) 12:09:43 437.445
O/OREOS (USA 219) 31 Jul 12:07:51 12:12:17 48° 252° (WSW) 12:16:42 437.305
UKube-1 31 Jul 12:07:59 12:12:09 47° 288° (WNW) 12:16:17 .
QB50P2 31 Jul 12:11:50 12:14:43 17° 269° (W) 12:17:29 145.880/145.840
BUGSAT 1 31 Jul 12:13:03 12:16:28 25° 265° (W) 12:19:49 437.445
CUBEBUG 1 31 Jul 12:23:00 12:27:21 86° 284° (WNW) 12:31:41 437.445
HUMSAT D 31 Jul 12:25:48 12:29:01 20° 293° (WNW) 12:32:07 437.325/437.525
50 SAT 31 Jul 12:27:25 12:31:01 33° 290° (WNW) 12:34:35 437.505
YUBILEINY 31 Jul 12:31:25 12:40:03 60° 268° (W) 12:48:38 435.215
DX 1 31 Jul 12:35:05 12:38:37 24° 293° (WNW) 12:42:03 434.975-435.025
Oscar 19 31 Jul 12:40:27 12:45:08 39° 69° (ENE) 12:49:55 437.125/150
VELOX 1 31 Jul 12:45:30 12:49:24 31° 291° (WNW) 12:53:15 145.980
ESTCUBE 1 31 Jul 12:53:11 12:57:20 36° 290° (WNW) 13:01:25 437.505/2401.250
SPROUT 31 Jul 13:02:40 13:06:59 78° 102° (ESE) 13:11:17 437.525
Cosmos 2491 31 Jul 13:05:04 13:13:51 74° 281° (W) 13:22:37 435.465 / 435.565
Cosmos 2504 31 Jul 13:14:32 13:22:15 41° 71° (ENE) 13:30:18 435.465 / 435.565
TISAT 1 31 Jul 13:18:14 13:22:26 70° 102° (ESE) 13:26:39 437.305
BEESAT 31 Jul 13:29:51 13:32:43 16° 90° (E) 13:35:46 436.000
AIST 1 31 Jul 13:31:03 13:34:13 19° 290° (WNW) 13:37:15
Gurwin Techsat 1B 31 Jul 13:32:05 13:36:54 37° 68° (ENE) 13:41:46 435.225
JAS-2 31 Jul 13:38:30 13:42:53 21° 57° (ENE) 13:47:49 435.910
SWISSCUBE 31 Jul 13:49:24 13:53:27 27° 94° (E) 13:57:32 437.505
ITAMSAT 1 31 Jul 13:59:02 14:04:07 57° 72° (ENE) 14:09:16 435.822/435.867
ITUPSAT 1 31 Jul 14:09:39 14:14:09 39° 98° (E) 14:18:37 437.325
AO-7 31 Jul 14:18:05 14:25:03 32° 57° (ENE) 14:32:12 29.400- 29.500
Oscar 19 31 Jul 14:20:19 14:24:38 27° 266° (W) 14:28:54 437.125/150
CUSAT 1 31 Jul 14:25:20 14:28:28 22° 74° (ENE) 14:32:25 437.405
YUBILEINY 31 Jul 14:33:52 14:35:11 10° 287° (WNW) 14:35:44 435.215
KKS-1 31 Jul 14:36:40 14:38:28 13° 88° (E) 14:40:32 437.445
SPROUT 31 Jul 14:41:07 14:42:30 11° 298° (WNW) 14:43:41 437.525
HORYU 2 31 Jul 14:41:16 14:44:24 20° 65° (ENE) 14:47:40 437.375
TISAT 1 31 Jul 14:56:01 14:57:42 12° 297° (WNW) 14:59:11 437.305
BEESAT 31 Jul 15:06:17 15:10:59 56° 288° (WNW) 15:15:39 436.000
Cosmos 2504 31 Jul 15:06:41 15:14:38 48° 271° (W) 15:22:41 435.465 / 435.565
Cosmos 2491 31 Jul 15:07:23 15:12:39 16° 305° (NW) 15:17:26 435.465 / 435.565
Gurwin Techsat 1B 31 Jul 15:12:16 15:16:57 30° 266° (W) 15:21:34 435.225
GONETS M04 31 Jul 15:18:03 15:21:59 14° 53° (NE) 15:26:28
JAS-2 31 Jul 15:21:04 15:27:07 78° 258° (WSW) 15:34:03 435.910
SWISSCUBE 31 Jul 15:27:03 15:31:21 33° 292° (WNW) 15:35:34 437.505
ITAMSAT 1 31 Jul 15:40:22 15:44:04 19° 270° (W) 15:47:35 435.822/435.867
DANDE 31 Jul 15:41:12 15:44:49 82° 78° (ENE) 15:49:39 436.750
STARS 31 Jul 15:46:26 15:50:38 41° 98° (E) 15:54:50 437.465
ITUPSAT 1 31 Jul 15:47:57 15:51:51 24° 294° (WNW) 15:55:37 437.325
CUSAT 1 31 Jul 16:07:14 16:10:59 34° 263° (W) 16:15:44 437.405
AO-7 31 Jul 16:09:03 16:17:22 66° 256° (WSW) 16:25:43 29.400- 29.500
KKS-1 31 Jul 16:11:11 16:15:37 65° 286° (WNW) 16:20:03 437.445
HORYU 2 31 Jul 16:16:29 16:20:45 44° 261° (W) 16:25:02 437.375
PCSat 31 Jul 16:30:02 16:32:35 13° 34° (NNE) 16:35:19 145.827
MOZHAYETS 4 31 Jul 16:56:12 17:00:41 48° 98° (E) 17:05:09
CUTE-I 31 Jul 17:01:15 17:05:17 23° 64° (ENE) 17:09:29 437.470
SO-50 31 Jul 17:06:51 17:10:52 24° 40° (NE) 17:14:53 436.795
JAS-2 31 Jul 17:11:27 17:13:47 12° 281° (W) 17:15:42 435.910
GONETS M04 31 Jul 17:12:20 17:21:01 67° 78° (ENE) 17:29:43
STARS 31 Jul 17:23:31 17:26:49 20° 294° (WNW) 17:30:01 437.465
Cosmos 2499 31 Jul 17:28:41 17:35:13 24° 62° (ENE) 17:42:11 435.465 / 435.565
Cubesat XI-IV 31 Jul 17:43:40 17:48:51 52° 71° (ENE) 17:54:05 437.490
AO-7 31 Jul 18:08:49 18:12:01 12° 277° (W) 18:14:30 29.400- 29.500
PCSat 31 Jul 18:11:51 18:17:14 61° 56° (NE) 18:22:36 145.827
VERMONT LUNAR 31 Jul 18:18:58 18:21:02 16° 154° (SSE) 18:23:08 437.305
MOZHAYETS 4 31 Jul 18:34:15 18:37:35 19° 295° (WNW) 18:40:47
HO-68 31 Jul 18:37:31 18:42:01 19° 54° (NE) 18:46:47 435.675
CUTE-I 31 Jul 18:39:49 18:45:03 52° 260° (W) 18:50:18 437.470
SO-50 31 Jul 18:46:55 18:51:49 59° 240° (WSW) 18:56:34 436.795
CUBESAT XI-V 31 Jul 18:48:14 18:52:49 61° 100° (E) 18:57:21 437.345
BRITE-PL 31 Jul 18:56:36 19:00:21 29° 70° (ENE) 19:04:01 437.365/2234.400
STRAND 1 31 Jul 19:02:02 19:06:14 26° 93° (E) 19:10:29 437.568
DOVE 4 31 Jul 19:04:41 19:06:20 12° 63° (ENE) 19:08:10 437.250
GONETS M04 31 Jul 19:10:13 19:17:16 28° 277° (W) 19:24:04
GOMX 1 31 Jul 19:11:11 19:14:31 24° 69° (ENE) 19:17:53 467.674
Cosmos 2499 31 Jul 19:20:46 19:29:32 83° 263° (W) 19:38:25 435.465 / 435.565
Cubesat XI-IV 31 Jul 19:25:12 19:29:19 21° 269° (W) 19:33:18 437.490
RS-15 31 Jul 19:32:24 19:36:01 13° 97° (E) 19:40:42 29.354- 29.394
COMPASS 1 31 Jul 19:34:57 19:37:07 14° 64° (ENE) 19:39:28 437.405
SEEDS 31 Jul 19:47:36 19:50:58 24° 68° (ENE) 19:54:25 437.485
CUTE 1.7 + AOD 2 31 Jul 19:49:04 19:52:46 30° 70° (ENE) 19:56:33 437.475
VERMONT LUNAR 31 Jul 19:54:18 19:57:21 43° 170° (S) 20:00:23 437.305
PCSat 31 Jul 19:56:16 20:00:14 20° 253° (WSW) 20:04:01 145.827
CANX-2 31 Jul 19:57:01 20:01:00 40° 72° (ENE) 20:05:04 2200.000
PHONESAT 2.4 31 Jul 19:59:12 20:01:23 16° 152° (SSE) 20:03:37 2401.200-2431.200
PRISM 31 Jul 20:10:33 20:14:41 76° 286° (WNW) 20:18:45 437.425
AAUSAT CUBESAT 2 31 Jul 20:15:12 20:18:53 31° 70° (ENE) 20:22:38 437.432
CUBESAT XI-V 31 Jul 20:27:02 20:29:48 16° 297° (WNW) 20:32:25 437.345
